Погода в Майдане

Россия / Республика Татарстан     55°27′10″N   48°47′48″E
темп.,
°C
ветер,
м/с
пор.,
м/с
влажн.,
%
обл.,
%
осадки,
мм/ч
давл.,
гПа
погр.,
м
6 марта, сб
сб600:00−13юз34954 0.0 100950
03:00−10зюз499652 0.1 1010235
06:00−11з499599 0.2 1011248
09:00−13зсз589599 0.3 1013311
12:00−11зсз469290 0.0 1014408
15:00−10з378964 0.0 1014471
18:00−14зюз239439 0.0 101420
21:00−14зюз339468 0.0 101444
7 марта, вс
вс700:00−15зюз239791 0.1 101228
03:00−15юз229890 0.1 101220
06:00−17юз229982 0.0 101120
09:00−14юз239789 0.1 1011130
12:00−11ююз469588 0.0 1009298
15:00−10ююз599394 0.1 1006415
18:00−8ю61388100 0.0 1004511
21:00−7ю81494100 0.8 1001819
8 марта, пн
пн800:00−6ю81594100 1.1 996812
03:00−5юз81294100 2.6 995760
06:00−12юз5128833 0.1 996254
09:00−10юз6128821 0.1 997375
12:00−6ююз7117994 0.0 998647
15:00−6ю5108197 0.0 996645
18:00−9юв2393100 0.2 99429
21:00−8сз4696100 4.1 994193
9 марта, вт
вт900:00−8зсз51194100 0.2 995407
03:00−10з71393100 0.5 998491
06:00−11з71292100 0.2 1002544
09:00−12зсз61092100 0.2 1005534
12:00−12зсз6990100 0.1 1007541
15:00−12зсз5890100 0.1 1009603
18:00−15з489599 0.0 1010180
21:00−15зсз359798 0.1 1012126
10 марта, ср
ср1000:00−16зсз239898 0.1 101326
03:00−17зсз359796 0.1 1013113
06:00−19зсз359895 0.1 1014134
09:00−17сз479594 0.1 1016338
12:00−16сз4692100 0.0 1017479
15:00−16сз5791100 0.1 1018609
18:00−19сз3498100 0.1 101977
21:00−23ссз339795 0.1 102125